Preview of NWS' New Version of Forecast
This preview is not operational and should not be used for support decisions.
Latest weather observations around

Clayton Lake (K40B)

Using English Units (Switch to International System of Units)
Date/ Time (EDT) Wind (mph) Vis. (mi) Weather Sky Cond. Temp (°F) Rel. Humidity Wind Chill (°F) Heat Index (°F) Pressure Precip. (in)
Air Dwpt 6 hour Altimeter (inHg) Sea level (inHg) 1 hr 3 hr 6 hr
Max Min
May 27 22:16 6   Clear   56 38     50%       30.11      
May 27 21:16 SSE 9   Clear   58 41     53%       30.12      
May 27 20:16 5   Clear   59 40     50%       30.12      
May 27 19:16 S 13   Clear   63 40     44%       30.12      
May 27 18:17 S 15   Clear   65 40     39%       30.12      
May 27 17:16 SSE 8   Clear   66 42     42%       30.14      
May 27 16:16 S 10   Clear   67 42     40%       30.15      
May 27 15:16 E 8   Clear   66 39     38%       30.18      
May 27 14:16 6   Clear   66 40     37%       30.2      
May 27 13:16 SSE 8   Clear   65 38     37%       30.21      
May 27 12:16 7   Clear   64 42     44%       30.23      
May 27 11:16 7   Clear   62 36     39%       30.25      
May 27 10:16 ESE 9   Clear   58 38     47%       30.27      
May 27 09:16 E 8   Clear   54 34     45%       30.28      
May 27 08:16 ESE 9   Clear   51 35     53%       30.27     0
May 27 07:16 5   Clear   43 34     70% 41     30.27      
May 27 06:16 Calm   Clear   34 32     94%       30.26      
Notice The following observation data may not be complete
May 27 05:16 Calm   Clear            %       30.25   0  
Notice The following observation data may not be complete
May 27 04:16 Calm   Clear            %       30.22 0    
May 27 03:16 Calm   Clear   31 30     98%       30.2      
May 27 02:16 Calm   Clear   33 32     97%       30.18     0
May 27 01:16 Calm   Clear   34 31     88%       30.15      
May 27 00:16 Calm   Clear   37 33     84%       30.14      
May 26 23:16 Calm   Clear   41 35     79%       30.11 0 0  
May 26 22:16 Calm   Clear   42 35     74%       30.08 0    
May 26 21:16 Calm   Clear   47 37     68%       30.04      
May 26 20:16 Calm   Clear   53 36     53%       30      
May 26 19:16 5   Clear   60 26     27%       29.96      
May 26 18:23 5   Clear   63 26     24%       29.93      
May 26 17:16 5   Clear   65 25     22%       29.9      
May 26 16:16 6   Clear   65 31     28%       29.88      
May 26 15:16 N 8   Clear   65 33     30%       29.85      
May 26 14:16 3   Clear   65 34     31%       29.82      
May 26 13:16 6   Clear   62 29     28%       29.81      
May 26 12:16 3   Clear   62 31     32%       29.8      
May 26 11:16 WNW 7   Clear   63 34     34%       29.76      
May 26 10:16 5   Clear   60 44     55%       29.75      
May 26 09:16 Calm   Clear   57 46     67%       29.73      
May 26 08:16 Calm   Clear   56 49     77%       29.69     0
May 26 07:16 Calm   Clear   53 52     95%       29.67 0    
May 26 06:16 Calm   Clear   56 56     97%       29.64      
May 26 05:16 Calm   Clear   58 58     99%       29.61 0 0  
Notice The following observation data may not be complete
May 26 04:16 2   Clear            %       29.6      
Notice The following observation data may not be complete
May 26 03:16 Calm   Clear            %       29.57      
May 26 02:16 3   Clear   60 60     100%       29.56     0
May 26 01:16 3   Clear   61 61     99%       29.57      
Notice The following observation data may not be complete
May 26 00:16 5   Clear            %       29.57 0    
Notice The following observation data may not be complete
May 25 23:16 Calm   Clear            %       29.57      
Notice The following observation data may not be complete
May 25 22:16 Calm   Clear            %       29.56      
Notice The following observation data may not be complete
May 25 21:16 Calm   Clear            %       29.56      
May 25 20:16 5   Clear   63 62     94%       29.54 0   0
May 25 19:16 S 8   Clear   63 63     98%       29.52 0    
May 25 18:16 2   Clear   64 62     93%       29.51 0    
May 25 17:16 3   Clear   67 59     74%       29.49 0 0  
May 25 16:16 WSW 9   Clear   82 48     31%   80   29.47      
May 25 15:16 WSW 11   Clear   82 49     31%   81   29.49      
May 25 14:16 7   Clear   82 48     31%   80   29.52      
May 25 13:16 W 9   Clear   80 48     32%   79   29.54      
May 25 12:16 SW 10   Clear   77 47     35%   76   29.56      
May 25 11:16 SSW 8   Clear   74 49     40%   73   29.59      
May 25 10:16 SW 8   Clear   71 47     43%   70   29.61      
May 25 09:17 SW 8   Clear   68 48     48%       29.63      
May 25 08:16 7   Clear   65 46     51%       29.65      
May 25 07:16 Calm   Clear   55 48     78%       29.67      
May 25 06:16 Calm   Clear   47 46     95%       29.68      
May 25 05:16 Calm   Clear   47 45     95%       29.69      
May 25 04:16 2   Clear   47 43     84%       29.69      
May 25 03:16 3   Clear   48 43     82% 47     29.7      
May 25 02:16 Calm   Clear   48 43     81%       29.73     0
May 25 01:16 2   Clear   48 43     82%       29.77      
May 15 06:16 WSW 7   Clear   57 41     55%       29.72      
May 14 20:16 Calm   Clear   60 41     50%       29.71      
May 14 15:16 WSW 14   Clear   74 35     24%   72   29.71      
May 14 12:16 SSW 11   Clear   69 35     29%       29.76      
May 13 21:16 S 9   Clear   53 31     44%       29.9      
May 13 19:16 3   Clear   63 24     23%       29.9      
May 13 14:16 SSW 13   Clear   64 25     22%       30.06      
May 12 17:16 5   Clear   56 16     20%       30.03      
May 12 00:16 Calm   Clear   28 22     77%       30.15      
May 11 23:16 Calm   Clear   29 22     74%       30.14      
May 11 10:16 6   Clear   36 20     52% 31     29.94      
Jun 12 02:16 Calm   Clear   57 52     83%       29.86      
Jun 11 23:16 Calm   Clear   64 56     75%       29.8      
Jun 11 18:16 WSW 8   Clear   85 54     35%   84   29.63      
Jun 11 16:16 SW 8   Clear   86 54     34%   84   29.61      
Jun 11 15:16 SW 11   Clear   86 54     34%   84   29.59      
Jun 10 20:17 Calm   Clear   62 47     58%       29.84      
Jun 10 10:16 SSW 9   Clear   59 36     42%       29.92      
Jun 09 17:16 3   Clear   63 57     79%       29.46      
Jun 08 03:16 3   Clear   58 50     75%       29.88      
Jun 08 01:16 3   Clear   56 49     78%       29.88